Weather History for KLWT - July, 2012

Change the Weather History Date:

Monday, July 16, 2012

  Actual Average Record
Temperature  
Mean Temperature 66 °F 66 °F  
Max Temperature 81 °F 81 °F 98 °F (1919)
Min Temperature 51 °F 51 °F 34 °F (1999)
Degree Days  
Heating Degree Days 0 2  
Month to date heating degree days 9 49  
Since 1 June heating degree days 209 276  
Since 1 July heating degree days 9 49  
Cooling Degree Days 1 3  
Month to date cooling degree days 81 38  
Year to date cooling degree days 104 60  
Since 1 June cooling degree days 104 58  
Growing Degree Days 16 (Base 50)    
Moisture  
Dew Point 54 °F    
Average Humidity 65    
Maximum Humidity 93    
Minimum Humidity 36    
Precipitation  
Precipitation 0.19 in 0.07 in 1.02 in (1928)
Month to date precipitation 0.77 1.11  
Year to date precipitation 11.46 10.45  
Snow  
Snow 0.00 in - - ()
Snow Depth 0.00 in    
Sea Level Pressure  
Sea Level Pressure 29.90 in    
Wind  
Wind Speed 6 mph (WNW)    
Max Wind Speed 15 mph    
Max Gust Speed 21 mph    
Visibility 9 miles    
Events Rain    
T = Trace of Precipitation, MM = Missing Value Source: NWS Daily Summary

Daily Weather History Graph

Daily Weather History Graph

Search for Another Location

Airport or City:

Trip Planner

Search our weather history database for the weather conditions in past years. The results will help you decide how hot, cold, wet, or windy it might be!

Date:

Astronomy

Jul. 16, 2012 Rise Set
Actual Time 5:39 AM MDT 9:07 PM MDT
Civil Twilight 5:01 AM MDT 9:45 PM MDT
Nautical Twilight 4:11 AM MDT 10:35 PM MDT
Astronomical Twilight 3:04 AM MDT 11:41 PM MDT
Moon 3:25 AM MDT (7/16) 7:15 PM MDT (7/16)
Length of Visible Light 16h 44m
Length of Day
15h 28m
Waning Crescent, 6% of the Moon is Illuminated
Jul 16
Waning Crescent
Jul 18
New
Jul 26
First Quarter
Aug 1
Full
Aug 9
Last Quarter

Hourly Weather History & Observations

Time (MDT) Temp. Dew Point Humidity Pressure Visibility Wind Dir Wind Speed Gust Speed Precip Events Conditions
12:54 AM 59.0 °F 51.1 °F 75% 29.86 in 10.0 mi South 3.5 mph - N/A   Partly Cloudy
1:54 AM 55.9 °F 50.0 °F 80% 29.87 in 10.0 mi SSW 4.6 mph - N/A   Partly Cloudy
3:54 AM 53.1 °F 48.9 °F 86% 29.88 in 10.0 mi SSE 5.8 mph - N/A   Clear
4:54 AM 54.0 °F 48.9 °F 83% 29.88 in 10.0 mi SSE 3.5 mph - N/A   Clear
5:54 AM 52.0 °F 48.0 °F 86% 29.91 in 10.0 mi Calm Calm - N/A   Clear
6:54 AM 55.0 °F 50.0 °F 83% 29.93 in 10.0 mi SSE 3.5 mph - N/A   Clear
7:54 AM 63.0 °F 51.1 °F 65% 29.91 in 10.0 mi West 5.8 mph - N/A   Clear
8:54 AM 64.9 °F 54.0 °F 68% 29.92 in 10.0 mi Calm Calm - N/A   Clear
9:54 AM 69.1 °F 54.0 °F 58% 29.92 in 10.0 mi WNW 9.2 mph - N/A   Clear
10:54 AM 72.0 °F 53.1 °F 51% 29.92 in 10.0 mi NNW 8.1 mph - N/A   Clear
11:54 AM 73.9 °F 52.0 °F 46% 29.91 in 10.0 mi North 10.4 mph - N/A   Clear
12:54 PM 77.0 °F 51.1 °F 40% 29.90 in 10.0 mi WNW 8.1 mph - N/A   Clear
1:54 PM 79.0 °F 53.1 °F 40% 29.88 in 10.0 mi NNE 9.2 mph - N/A   Clear
2:54 PM 80.1 °F 52.0 °F 38% 29.88 in 10.0 mi Variable 6.9 mph 19.6 mph N/A   Clear
3:54 PM 81.0 °F 52.0 °F 36% 29.87 in 10.0 mi NNE 12.7 mph 19.6 mph N/A   Partly Cloudy
4:54 PM 80.1 °F 52.0 °F 38% 29.85 in 10.0 mi North 12.7 mph - N/A   Clear
5:54 PM 77.0 °F 52.0 °F 42% 29.87 in 10.0 mi North 8.1 mph - N/A   Mostly Cloudy
6:54 PM 75.9 °F 53.1 °F 45% 29.87 in 10.0 mi NNW 4.6 mph - N/A   Scattered Clouds
7:54 PM 73.9 °F 54.0 °F 50% 29.89 in 10.0 mi WNW 6.9 mph - N/A   Overcast
8:28 PM 66.2 °F 57.2 °F 73% 30.00 in 1.8 mi NNW 4.6 mph - 0.11 in Rain Heavy Rain
8:41 PM 64.4 °F 60.8 °F 88% 30.00 in 3.0 mi SW 4.6 mph - 0.17 in Rain Rain
8:54 PM 64.9 °F 60.1 °F 84% 29.91 in 7.0 mi SSW 4.6 mph - 0.19 in Rain Light Rain
9:54 PM 63.0 °F 60.1 °F 90% 29.91 in 10.0 mi SSE 6.9 mph - 0.00 in   Partly Cloudy
10:54 PM 62.1 °F 60.1 °F 93% 29.90 in 10.0 mi Calm Calm - N/A   Clear
11:54 PM 63.0 °F 59.0 °F 87% 29.89 in 10.0 mi Calm Calm - N/A   Clear